Location: Unspecified
(54.1780°N, 0.0000°E)
Time: 21:33:58
(UTC+00:00)

Transit 2A - Pass Details

Date: 21 June 2019
Orbit: 594 x 964 km, 66.7° (Epoch: 19 July)

Event Time Altitude Azimuth Distance (km) Brightness Sun altitude
Rises 07:57:23 0° 317° (NW) 3,551 9.1 35.6°
Reaches altitude 10° 08:00:03 10° 320° (NW) 2,561 8.4 36.0°
Maximum altitude 08:05:56 63° 42° (NE) 920 7.3 36.8°
Drops below altitude 10° 08:11:13 10° 124° (SE) 2,303 9.6 37.6°
Sets 08:13:30 0° 128° (SE) 3,167 10.0 37.9°
